When you browse on this site, cookies collect data to enhance your experience and personalize the content and advertising you see.
Visit our Privacy Policy to learn more. By continuing to use the site, you agree to this use of cookies and data.
  • en France
  • Liste des pays
  • À 7 jours
  • Température de l'eau
  • Carte satellitaire
  • Carte météo
  • Widgets météo
  • user-avatar
    Se connecter

    Météo par heure à Povarovo

    Ce jour, 19 Février, Mardi

    Heure Température Précipitation Vent Pression Humidité
    00:00 -11°C° 0 mm 1 m/s 746 mmHg 92%
    01:00 -11°C° 0 mm 1 m/s 746 mmHg 92%
    02:00 -12°C° 0 mm 2 m/s 746 mmHg 91%
    03:00 -12°C° 0 mm 2 m/s 746 mmHg 90%
    04:00 -13°C° 0 mm 3 m/s 745 mmHg 89%
    05:00 -12°C° 0 mm 3 m/s 745 mmHg 89%
    06:00 -11°C° 0 mm 4 m/s 744 mmHg 87%
    07:00 -11°C° 0 mm 4 m/s 744 mmHg 84%
    08:00 -11°C° 0 mm 5 m/s 743 mmHg 82%
    09:00 -8°C° 0 mm 5 m/s 743 mmHg 79%
    10:00 -8°C° 0 mm 6 m/s 742 mmHg 75%
    11:00 -5°C° 0 mm 6 m/s 742 mmHg 71%
    12:00 -4°C° 0 mm 6 m/s 741 mmHg 71%
    13:00 -4°C° 0 mm 6 m/s 741 mmHg 71%
    14:00 -3°C° 0 mm 6 m/s 740 mmHg 71%
    15:00 -4°C° 0 mm 5 m/s 740 mmHg 73%
    16:00 -4°C° 0 mm 5 m/s 739 mmHg 75%
    17:00 -4°C° 0 mm 4 m/s 739 mmHg 77%
    18:00 -4°C° 0 mm 4 m/s 739 mmHg 78%
    19:00 -5°C° 0 mm 4 m/s 738 mmHg 79%
    20:00 -6°C° 0 mm 5 m/s 737 mmHg 81%
    21:00 -6°C° 0 mm 5 m/s 737 mmHg 83%
    22:00 -6°C° 0 mm 5 m/s 736 mmHg 85%
    23:00 -6°C° 0 mm 5 m/s 736 mmHg 87%

    Demain, 20 Février, Mercredi

    Heure Température Précipitation Vent Pression Humidité
    00:00 -5°C° 0 mm 5 m/s 735 mmHg 87%
    01:00 -5°C° 0 mm 5 m/s 735 mmHg 88%
    02:00 -4°C° 0 mm 5 m/s 734 mmHg 89%
    03:00 -4°C° 0 mm 5 m/s 733 mmHg 89%
    04:00 -4°C° 0 mm 6 m/s 733 mmHg 88%
    05:00 -4°C° 0 mm 6 m/s 732 mmHg 88%
    06:00 -2°C° 0.1 mm 5 m/s 732 mmHg 88%
    07:00 -2°C° 0.1 mm 5 m/s 731 mmHg 89%
    08:00 -1°C° 0.1 mm 5 m/s 731 mmHg 89%
    09:00 -1°C° 0.1 mm 5 m/s 731 mmHg 91%
    10:00 -1°C° 0.1 mm 5 m/s 731 mmHg 92%
    11:00 0°C° 0.1 mm 4 m/s 731 mmHg 94%
    12:00 0°C° 0 mm 4 m/s 731 mmHg 93%
    13:00 0°C° 0 mm 4 m/s 731 mmHg 93%
    14:00 0°C° 0 mm 4 m/s 731 mmHg 93%
    15:00 0°C° 0.1 mm 4 m/s 731 mmHg 93%
    16:00 -1°C° 0.1 mm 4 m/s 731 mmHg 93%
    17:00 -1°C° 0.1 mm 4 m/s 730 mmHg 93%
    18:00 -1°C° 0.1 mm 4 m/s 730 mmHg 93%
    19:00 -1°C° 0.1 mm 4 m/s 730 mmHg 92%
    20:00 -1°C° 0.1 mm 4 m/s 730 mmHg 92%
    21:00 -1°C° 0.1 mm 4 m/s 729 mmHg 92%
    22:00 -1°C° 0.1 mm 4 m/s 729 mmHg 92%
    23:00 -1°C° 0.1 mm 4 m/s 729 mmHg 92%

    Après-demain, 21 Février, Jeudi

    Heure Température Précipitation Vent Pression Humidité
    00:00 -1°C° 0.3 mm 4 m/s 728 mmHg 92%
    01:00 0°C° 0.3 mm 3 m/s 728 mmHg 92%
    02:00 -1°C° 0.3 mm 3 m/s 728 mmHg 93%
    03:00 -2°C° 0.5 mm 4 m/s 728 mmHg 92%
    04:00 -3°C° 0.5 mm 4 m/s 728 mmHg 92%
    05:00 -3°C° 0.5 mm 4 m/s 728 mmHg 92%
    06:00 -4°C° 0.2 mm 4 m/s 728 mmHg 92%
    07:00 -4°C° 0.2 mm 4 m/s 728 mmHg 92%
    08:00 -4°C° 0.2 mm 3 m/s 728 mmHg 92%
    09:00 -4°C° 0.1 mm 3 m/s 728 mmHg 91%
    10:00 -3°C° 0.1 mm 4 m/s 729 mmHg 91%
    11:00 -2°C° 0.1 mm 4 m/s 729 mmHg 90%
    12:00 -3°C° 0.1 mm 4 m/s 729 mmHg 89%
    13:00 -4°C° 0.1 mm 5 m/s 730 mmHg 88%
    14:00 -5°C° 0.1 mm 6 m/s 730 mmHg 86%
    15:00 -5°C° 0.1 mm 6 m/s 730 mmHg 88%
    16:00 -5°C° 0.1 mm 6 m/s 731 mmHg 89%
    17:00 -5°C° 0.1 mm 5 m/s 732 mmHg 90%
    18:00 -8°C° 0.2 mm 6 m/s 733 mmHg 89%
    19:00 -9°C° 0.2 mm 6 m/s 734 mmHg 88%
    20:00 -11°C° 0.2 mm 7 m/s 734 mmHg 87%
    21:00 -12°C° 0.1 mm 7 m/s 735 mmHg 85%
    22:00 -12°C° 0.1 mm 7 m/s 736 mmHg 84%
    23:00 -13°C° 0.1 mm 7 m/s 737 mmHg 82%

    22 Février, Vendredi

    Heure Température Précipitation Vent Pression Humidité
    00:00 -14°C° 0.1 mm 7 m/s 738 mmHg 82%
    01:00 -14°C° 0.1 mm 7 m/s 739 mmHg 81%
    02:00 -15°C° 0.1 mm 7 m/s 739 mmHg 80%
    03:00 -17°C° 0 mm 7 m/s 740 mmHg 79%
    04:00 -17°C° 0 mm 7 m/s 740 mmHg 79%
    05:00 -18°C° 0 mm 7 m/s 741 mmHg 78%
    06:00 -18°C° 0 mm 7 m/s 742 mmHg 78%
    07:00 -18°C° 0 mm 7 m/s 742 mmHg 77%
    08:00 -18°C° 0 mm 7 m/s 743 mmHg 77%
    09:00 -17°C° 0 mm 8 m/s 743 mmHg 75%
    10:00 -16°C° 0 mm 8 m/s 744 mmHg 74%
    11:00 -15°C° 0 mm 8 m/s 744 mmHg 73%
    12:00 -15°C° 0 mm 8 m/s 744 mmHg 72%
    13:00 -15°C° 0 mm 8 m/s 744 mmHg 72%
    14:00 -13°C° 0 mm 8 m/s 744 mmHg 71%
    15:00 -15°C° 0 mm 8 m/s 745 mmHg 73%
    16:00 -14°C° 0 mm 7 m/s 745 mmHg 74%
    17:00 -15°C° 0 mm 7 m/s 746 mmHg 76%
    18:00 -15°C° 0.1 mm 7 m/s 746 mmHg 77%
    19:00 -17°C° 0.1 mm 7 m/s 747 mmHg 78%
    20:00 -17°C° 0.1 mm 7 m/s 747 mmHg 79%
    21:00 -16°C° 0 mm 6 m/s 748 mmHg 80%
    22:00 -16°C° 0 mm 6 m/s 748 mmHg 81%
    23:00 -17°C° 0 mm 5 m/s 749 mmHg 82%

    23 Février, Samedi

    Heure Température Précipitation Vent Pression Humidité
    00:00 -17°C° 0 mm 5 m/s 749 mmHg 83%
    01:00 -17°C° 0 mm 5 m/s 750 mmHg 83%
    02:00 -17°C° 0 mm 5 m/s 750 mmHg 84%
    03:00 -17°C° 0 mm 5 m/s 750 mmHg 85%
    04:00 -17°C° 0 mm 5 m/s 750 mmHg 86%
    05:00 -18°C° 0 mm 5 m/s 751 mmHg 86%
    06:00 -18°C° 0 mm 5 m/s 751 mmHg 87%
    07:00 -17°C° 0 mm 4 m/s 751 mmHg 87%
    08:00 -17°C° 0 mm 4 m/s 751 mmHg 87%
    09:00 -16°C° 0 mm 4 m/s 752 mmHg 85%
    10:00 -15°C° 0 mm 4 m/s 752 mmHg 82%
    11:00 -15°C° 0 mm 4 m/s 752 mmHg 80%
    12:00 -14°C° 0 mm 4 m/s 752 mmHg 78%
    13:00 -14°C° 0 mm 4 m/s 752 mmHg 77%
    14:00 -12°C° 0 mm 4 m/s 752 mmHg 76%
    15:00 -14°C° 0 mm 4 m/s 752 mmHg 79%
    16:00 -14°C° 0 mm 3 m/s 752 mmHg 82%
    17:00 -15°C° 0 mm 3 m/s 753 mmHg 85%
    18:00 -15°C° 0 mm 2 m/s 753 mmHg 87%
    19:00 -15°C° 0 mm 2 m/s 753 mmHg 89%
    20:00 -16°C° 0 mm 2 m/s 754 mmHg 91%
    21:00 -16°C° 0 mm 2 m/s 754 mmHg 92%
    22:00 -16°C° 0 mm 2 m/s 755 mmHg 92%
    23:00 -17°C° 0 mm 2 m/s 755 mmHg 93%

    24 Février, Dimanche

    Heure Température Précipitation Vent Pression Humidité
    00:00 -17°C° 0 mm 2 m/s 755 mmHg 93%
    01:00 -17°C° 0 mm 2 m/s 756 mmHg 93%
    02:00 -15°C° 0 mm 1 m/s 756 mmHg 93%
    03:00 -15°C° 0 mm 1 m/s 756 mmHg 92%
    04:00 -15°C° 0 mm 1 m/s 756 mmHg 92%
    05:00 -15°C° 0 mm 1 m/s 756 mmHg 92%
    06:00 -15°C° 0 mm 1 m/s 756 mmHg 91%
    07:00 -14°C° 0 mm 1 m/s 757 mmHg 90%
    08:00 -13°C° 0 mm 1 m/s 757 mmHg 90%
    09:00 -11°C° 0 mm 1 m/s 757 mmHg 85%
    10:00 -9°C° 0 mm 1 m/s 757 mmHg 81%
    11:00 -7°C° 0 mm 1 m/s 757 mmHg 76%
    12:00 -7°C° 0 mm 1 m/s 757 mmHg 75%
    13:00 -6°C° 0 mm 1 m/s 756 mmHg 75%
    14:00 -6°C° 0 mm 2 m/s 756 mmHg 74%
    15:00 -8°C° 0 mm 2 m/s 755 mmHg 78%
    16:00 -9°C° 0 mm 2 m/s 755 mmHg 82%
    17:00 -10°C° 0 mm 2 m/s 754 mmHg 86%
    18:00 -10°C° 0 mm 2 m/s 754 mmHg 86%
    19:00 -12°C° 0 mm 3 m/s 753 mmHg 86%
    20:00 -13°C° 0 mm 3 m/s 753 mmHg 85%
    21:00 -12°C° 0 mm 3 m/s 752 mmHg 84%
    22:00 -12°C° 0 mm 4 m/s 751 mmHg 82%
    23:00 -12°C° 0 mm 4 m/s 750 mmHg 80%
    Voir plus